Location: Kawakawa
(35.3830°S, 174.0670°E)
Time: 09:40:14
(UTC+13:00)

USA 186 - Pass Details

Date: 24 January 2019
Orbit: 262 x 443 km, 96.9° (Epoch: 04 October)

Event Time Altitude Azimuth Distance (km) Brightness Sun altitude
Rises 21:25:23 0° 161° (SSE) 2,227 5.6 -9.4°
Reaches altitude 10° 21:27:29 10° 152° (SSE) 1,338 4.4 -9.8°
Maximum altitude 21:30:09 36° 82° (E) 566 1.9 -10.2°
Enters shadow 21:32:28 11° 14° (NNE) 1,185 3.6 -10.6°
